Welcome to the New NWS' Forecast!
Most changes are behind the scenes, but click here for differences you might notice.
Latest weather observations around

Fort Smith, Fort Smith Regional Airport (KFSM)

Using English Units (Switch to International System of Units)
Date/ Time (CDT) Wind (mph) Vis. (mi) Weather Sky Cond. Temp (°F) Rel. Humidity Wind Chill (°F) Heat Index (°F) Pressure Precip. (in)
Air Dwpt 6 hour Altimeter (inHg) Sea level (inHg) 1 hr 3 hr 6 hr
Max Min
Aug 17 03:53 Calm 10 Light Rain FEW024 BKN065 OVC085 73 72     96%   75 29.91 29.89 0 0  
Aug 17 03:27 N 9 7 Thunderstorms and Rain FEW025 BKN036 OVC043 73 72     96%   75 29.91   0    
Aug 17 03:20 N 14 3 Light Rain and Fog/Mist BKN024 BKN031 OVC042 73 71     94%   74 29.91   0    
Aug 17 03:11 N 11 1.75 Heavy Rain and Fog/Mist FEW019 BKN026 OVC032 73 71     94%   74 29.92   0    
Aug 17 03:00 NNW 18 7 Rain BKN024 OVC032 75 71     88%   76 29.93   0    
Aug 17 02:53 NNW 13 10 Cloudy SCT025 BKN032 OVC042 76 70     82%   77 29.93 29.91      
Aug 17 01:53 ESE 5 10 Partly Cloudy FEW060 FEW075 SCT100 80 76     87%   85 29.89 29.87      
Aug 17 00:53 ENE 6 10 Mostly Cloudy FEW070 BKN090 BKN110 80 77     90%   86 29.9 29.88      
Aug 16 23:53 E 3 10 Clear CLR 82 75     79%   89 29.91 29.89      
Aug 16 22:53 E 3 10 Clear CLR 83 76     79%   91 29.92 29.9      
Aug 16 21:53 Calm 10 Clear CLR 83 76     79%   91 29.9 29.88      
Aug 16 20:53 Calm 10 Clear CLR 85 75     72%   93 29.88 29.86      
Aug 16 19:53 S 6 10 Clear CLR 86 76     72%   96 29.85 29.83      
Aug 16 18:53 S 6 10 Clear CLR 88 76     68%   99 29.86 29.84      
Aug 16 17:53 S 9 10 Clear CLR 89 77     68%   102 29.87 29.85      
Aug 16 16:53 SSW 7 10 Mostly Clear FEW075 89 76     65%   100 29.89 29.87      
Aug 16 15:53 SW 6 10 Clear CLR 87 76     70%   98 29.9 29.88      
Aug 16 14:53 SW 6 10 Partly Cloudy SCT042 85 75     72%   93 29.92 29.9      
Aug 16 13:53 SW 9 10 Cloudy FEW028 BKN037 OVC043 86 75     70%   95 29.94 29.92      
Aug 16 12:53 SSW 16 10 Mostly Clear FEW085 86 74     67%   94 29.94 29.93 0   0
Aug 16 11:53 S 13 10 Clear CLR 86 74     67%   94 29.94 29.92      
Aug 16 11:48 S 10 0.5 Mostly Clear FEW075 88 75     66%   98 29.94        
Aug 16 10:53 SSW 7 10 Mostly Cloudy BKN075 84 74     72%   91 29.94 29.92      
Aug 16 09:53 SSW 8 10 Clear CLR 84 75     74%   92 29.94 29.92      
Aug 16 08:53 ENE 6 10 Clear CLR 80 75     85%   85 29.93 29.91      
Aug 16 07:53 ENE 7 10 Clear CLR 76 74     94%   78 29.91 29.89      
Aug 16 06:53 ENE 6 10 Clear CLR 75 74     96%   77 29.9 29.88      
Aug 16 05:53 ENE 6 10 Clear CLR 75 73     94%   77 29.88 29.87      
Aug 16 04:53 NE 6 10 Clear CLR 75 73     94%   77 29.88 29.86      
Aug 16 03:53 ENE 7 10 Clear CLR 75 73     94%   77 29.88 29.86      
Aug 16 02:53 E 3 10 Clear CLR 75 72     90%   76 29.87 29.85      
Aug 16 01:53 E 8 10 Clear CLR 75 72     90%   76 29.89 29.87      
Aug 16 00:53 E 6 10 Clear CLR 75 72     90%   76 29.9 29.88      
Aug 15 23:53 ENE 7 10 Clear CLR 75 71     88%   76 29.91 29.89      
Aug 15 23:00   10 Cloudy SCT025 BKN037 OVC080 77 71     82%   78 29.91        
Aug 15 22:53   10 Cloudy SCT025 BKN044 OVC080 78 71     79%   79 29.91 29.89      
Aug 15 22:50   10 Cloudy SCT025 BKN044 OVC080 79 72     79%   82 29.91        
Aug 15 22:35 WNW 6 10 Mostly Cloudy BKN080 83 76     79%   91 29.9        
Aug 15 21:53 S 5 10 Clear CLR 83 76     79%   91 29.86 29.85      
Aug 15 21:39 S 7 10 Clear CLR 84 75     74%   92 29.85        
Aug 15 20:53 S 6 10 Partly Cloudy SCT044 85 76     75%   94 29.86 29.84      
Aug 15 20:18 SSE 6 10 Mostly Clear FEW047 85 76     75%   94 29.84        
Aug 15 19:53 SSE 5 10 Mostly Clear FEW045 FEW050 86 75     70%   95 29.83 29.81      
Aug 15 18:53 S 5 10 Clear CLR 88 74     63%   97 29.81 29.79      
Aug 15 17:53 S 7 10 Clear CLR 92 72     52%   100 29.79 29.77      
Aug 15 16:53 S 7 10 Clear CLR 92 73     54%   101 29.78 29.76      
Aug 15 15:53 SSE 3 10 Clear CLR 91 73     56%   100 29.81 29.79      
Aug 15 14:53 Calm 10 Clear CLR 91 75     60%   102 29.83 29.81      
Aug 15 13:53 SW 8 10 Partly Cloudy SCT038 90 75     62%   101 29.85 29.83      
Aug 15 12:53 3 10 Mostly Cloudy BKN030 BKN038 87 77     72%   99 29.88 29.85      
Aug 15 12:44 SSW 6 10 Mostly Cloudy SCT027 BKN034 87 76     70%   98 29.88        
Aug 15 12:23 SW 3 10 Mostly Cloudy BKN025 BKN032 86 76     72%   96 29.88        
Aug 15 11:53 5 10 Partly Cloudy FEW019 SCT032 85 77     77%   95 29.89 29.87      
Aug 15 11:49 E 6 10 Partly Cloudy SCT019 84 77     79%   94 29.89        
Aug 15 11:35 6 10 Mostly Cloudy BKN019 BKN028 85 77     77%   95 29.89        
Aug 15 11:08 E 6 10 Mostly Cloudy SCT014 SCT020 BKN030 83 77     82%   92 29.9        
Aug 15 11:00 ESE 3 10 Mostly Cloudy BKN014 BKN030 83 77     82%   92 29.9        
Aug 15 10:53 ENE 5 10 Mostly Clear FEW021 82 77     85%   90 29.9 29.88      
Aug 15 09:53 ENE 6 10 Mostly Clear FEW021 81 77     88%   88 29.89 29.87      
Aug 15 08:53 E 3 10 Mostly Cloudy BKN021 77 75     94%   79 29.89 29.87      
Aug 15 07:53 E 3 10 Cloudy SCT017 OVC023 75 75     100%   77 29.87 29.86      
Aug 15 07:20 E 5 10 Cloudy BKN024 OVC060 75 75     100%   77 29.86        
Aug 15 06:53 E 3 10 Mostly Cloudy SCT016 BKN050 BKN065 75 75     100%   77 29.85 29.83     1
Aug 15 06:38 E 5 10 Mostly Cloudy FEW006 SCT016 BKN021 75 75     100%   77 29.84        
Aug 15 05:53 Calm 10 Mostly Cloudy BKN018 76 75     97%   78 29.83 29.81      
Aug 15 04:53 Calm 10 Cloudy OVC018 76 74     94%   78 29.82 29.8 0    
Aug 15 04:50 Calm 10 Cloudy OVC018 75 73     94%   77 29.82   0    
Aug 15 04:36 Calm 10 Light Rain BKN018 OVC023 75 74     96%   77 29.81   0    
Aug 15 04:20 NNW 13 10 Thunderstorms and Rain BKN021 BKN030 OVC075 76 74     94%   78 29.82   0    
Aug 15 04:13 S 8 2.5 Thunderstorms and Rain and Fog/Mist FEW019 BKN036 OVC070 76 74     94%   78 29.81   0    
Aug 15 04:02 NW 14 1.25 Thunderstorms and Heavy Rain and Fog/Mist FEW008 BKN029 OVC100 75 74     96%   77 29.81   0    
Aug 15 04:00 WNW 9 1.75 Thunderstorms and Heavy Rain and Fog/Mist FEW011 BKN033 OVC100 75 74     96%   77 29.81   0    
Aug 15 03:53 5 4 Thunderstorms and Rain and Fog/Mist BKN040 BKN050 OVC100 75 74     96%   77 29.82 29.8 0 1  
Aug 15 03:40 SW 5 2.5 Thunderstorms and Heavy Rain and Fog/Mist SCT009 BKN033 OVC065 75 74     96%   77 29.82   0    
Aug 15 03:35 W 7 3 Thunderstorms and Rain and Fog/Mist SCT009 BKN025 OVC075 75 74     96%   77 29.82   0    
Aug 15 03:29 S 9 1.25 Thunderstorms and Heavy Rain and Fog/Mist FEW005 BKN020 OVC049 74 73     97%   76 29.82   0    
Aug 15 03:22 WSW 8 2.5 Thunderstorms and Heavy Rain and Fog/Mist SCT009 BKN022 OVC049 75 74     96%   77 29.82   0    
Aug 15 03:02 SE 3 10 Thunderstorms and Rain FEW007 BKN040 OVC080 75 75     100%   77 29.82   0    
Aug 15 02:53 ENE 5 7 Light Rain FEW010 BKN050 OVC070 75 75     100%   77 29.82 29.8 0    
Aug 15 02:45 5 3 Light Rain and Fog/Mist SCT017 BKN037 OVC050 75 75     100%   77 29.82   0    
Aug 15 02:33 7 2.5 Light Rain and Fog/Mist FEW008 BKN020 OVC070 75 75     100%   77 29.82   0    
Aug 15 02:30 E 3 3 Heavy Rain and Fog/Mist SCT017 BKN034 OVC070 75 75     100%   77 29.82   0    
Aug 15 02:04 Calm 4 Rain and Fog/Mist SCT006 BKN024 OVC042 75 75     100%   77 29.83   0    
Aug 15 01:53 E 3 10 Cloudy BKN006 BKN026 OVC050 75 75     100%   77 29.83 29.81      
Aug 15 01:23 ENE 6 10 Partly Cloudy FEW006 FEW042 SCT060 75 75     100%   77 29.83        
Aug 15 00:53 NE 7 10 Mostly Cloudy SCT042 BKN055 75 75     100%   77 29.83 29.82     0
Aug 15 00:36 ENE 5 10 Mostly Cloudy SCT028 BKN040 BKN055 75 75     100%   77 29.83        
Aug 14 23:53 E 6 10 Cloudy BKN029 BKN043 OVC080 76 75     97%   78 29.84 29.82      
Aug 14 23:33 E 6 10 Cloudy BKN027 OVC036 76 75     97%   78 29.84        
Aug 14 22:53 ENE 7 10 Cloudy BKN033 BKN048 OVC090 76 75     97%   78 29.85 29.83 0    
Aug 14 21:53 ENE 6 10 Light Rain BKN038 BKN048 OVC080 75 75     100%   77 29.84 29.83 0 0  
Aug 14 20:53 ENE 6 10 Cloudy OVC075 77 75     94%   79 29.83 29.81      
Aug 14 19:53 E 5 10 Mostly Cloudy BKN036 BKN080 78 75     90%   80 29.81 29.8      
Aug 14 18:53 E 7 10 Clear   79 74     85%   83 29.8 29.79     0
Aug 14 17:53 E 7 10 Partly Cloudy SCT035 79 74     85%   83 29.82 29.8      
Aug 14 16:53 E 7 10 Clear CLR 79 74     85%   83 29.83 29.81 0    
Aug 14 15:53 E 7 10 Light Rain FEW049 FEW070 BKN100 78 75     90%   80 29.84 29.82 0 0  
Aug 14 14:53 SE 5 10 Light Rain FEW014 FEW070 BKN090 78 73     85%   80 29.86 29.85 0    
Aug 14 13:53 NE 5 10 Mostly Cloudy BKN100 79 73     82%   82 29.87 29.85 0    
Aug 14 12:53 Calm 5 Rain and Fog/Mist FEW065 BKN095 OVC120 74 72     94%   75 29.89 29.87 0   0
Aug 14 11:53 S 6 10 Clear   74 71     91%   75 29.91 29.89 0    
Aug 14 11:41 S 6 10 Light Rain FEW007 SCT075 OVC100 74 72     94%   75 29.91   0    
Aug 14 11:32 S 7 7 Light Rain BKN008 BKN070 OVC110 73 72     96%   75 29.91   0    
Aug 14 11:23 S 5 3 Rain and Fog/Mist BKN010 BKN044 OVC090 74 73     97%   76 29.91   0    
Aug 14 11:09 SW 3 2.5 Rain and Fog/Mist BKN011 BKN032 OVC090 74 73     97%   76 29.9   0    
Aug 14 11:07 SW 5 3 Rain and Fog/Mist BKN011 BKN032 OVC090 74 73     97%   76 29.9   0    
Aug 14 11:02 SW 5 2 Rain and Fog/Mist BKN011 BKN030 OVC040 74 73     97%   76 29.9   0    
Aug 14 10:53 SW 6 1.75 Heavy Rain and Fog/Mist BKN009 BKN017 OVC030 74 73     97%   76 29.91 29.89 0    
Aug 14 10:50 SW 10 2.5 Thunderstorms and Heavy Rain and Fog/Mist BKN009 BKN017 OVC030 73 73     100%   75 29.91   0    
Aug 14 10:37 W 3 6 Thunderstorms and Rain and Fog/Mist BKN007 BKN030 OVC060 75 74     96%   77 29.89   0    
Aug 14 10:31 Calm 9 Light Rain FEW009 BKN030 OVC060 75 74     96%   77 29.89   0    
Aug 14 10:16 Calm 8 Light Rain FEW004 BKN030 OVC045 75 74     96%   77 29.88   0    
Aug 14 09:53 ESE 5 2.5 Cloudy BKN003 OVC010 74 73     97%   76 29.87 29.85      
Aug 14 08:53 ENE 3 5 Fog/Mist OVC002 74 74     100%   76 29.85 29.83      
Aug 14 05:53 E 5 1.5 Fog/Mist OVC002 73 73     100%   75 29.85 29.83      
Aug 14 05:49 ESE 5 1.75 Fog/Mist OVC002 73 73     100%   75 29.85        
Aug 14 04:53 E 6 5 Fog/Mist OVC003 73 73     100%   75 29.84 29.83      
Aug 14 03:33 ENE 6 8 Cloudy OVC004 73 73     100%   75 29.86        
Aug 14 02:53 E 5 10 Cloudy OVC005 73 73     100%   75 29.87 29.86      
Aug 14 02:18 ENE 6 10 Cloudy OVC004 73 72     96%   75 29.87        
Aug 14 01:53 E 3 10 Cloudy BKN005 OVC010 73 72     96%   75 29.87 29.86      
Aug 13 20:53 ENE 7 10 Cloudy OVC009 73 72     96%   75 29.88 29.86      
Aug 13 18:53 E 8 10 Cloudy OVC011 74 71     91%   75 29.88 29.86     0
Aug 13 17:53 ENE 9 10 Cloudy OVC013 75 71     88%   76 29.88 29.87      
Aug 13 15:53 E 9 10 Cloudy OVC011 74 70     87%   75 29.89 29.87   0  
Aug 13 14:53 ENE 10 10 Cloudy OVC009 73 69     87%   74 29.91 29.89      
Aug 13 13:53 E 10 10 Cloudy OVC008 72 69     91%   73 29.93 29.91 0    
Aug 13 12:53 E 7 10 Light Rain BKN008 OVC014 70 68     93%     29.94 29.93 0   1
Aug 13 11:53 E 14 6 Light Rain and Fog/Mist OVC009 68 67     96%     29.96 29.94 0    
Aug 13 09:53 E 11 6 Light Rain and Fog/Mist OVC009 68 67     96%     29.97 29.95 0 1  
Aug 13 09:29 E 9 10 Cloudy BKN009 OVC012 68 67     96%     29.96   0    
Aug 13 08:20 E 10 4 Rain and Fog/Mist BKN010 BKN029 OVC037 69 68     96%     29.95   0    
Notice The following observation data may not be complete
Aug 13 07:39   1.75 Heavy Rain and Fog/Mist BKN036 OVC060          %         0    
Aug 13 05:42 E 10 4 Heavy Rain and Fog/Mist BKN006 BKN029 OVC034 72 71     97%   73 29.92   0    
Aug 13 05:12 E 10 5 Rain and Fog/Mist FEW006 BKN027 OVC034 72 72     100%   74 29.93   0    
Aug 13 04:37 ENE 10 6 Light Rain and Fog/Mist FEW009 BKN026 OVC046 72 72     100%   74 29.93   0    
Aug 13 04:22 ENE 13 5 Heavy Rain and Fog/Mist FEW020 BKN027 OVC036 74 73     97%   76 29.92   0    
Aug 13 04:04 E 15 9 Light Rain BKN021 BKN027 OVC034 75 73     94%   77 29.93   0    
Notice The following observation data may not be complete
Aug 13 02:22   10 Cloudy FEW011 BKN020 OVC050          %              
Aug 13 01:53 ENE 8 10 Cloudy OVC055 77 74     90%   79 29.93 29.91      
Notice The following observation data may not be complete
Aug 13 00:19   10 Cloudy BKN021 OVC070          %         0    
Aug 12 23:53 ENE 5 10 Light Rain BKN075 OVC095 78 75     90%   80 29.96 29.94 0    
Aug 12 19:53 ESE 3 10 Light Rain SCT110 82 74     77%   88 29.95 29.93 0    
Aug 12 18:53 ENE 7 10 Partly Cloudy FEW090 SCT110 84 72     67%   90 29.96 29.93      
Aug 12 17:53 ENE 5 10 Clear CLR 86 71     61%   92 29.97 29.95      
Aug 12 16:53 NE 5 10 Clear CLR 86 71     61%   92 29.97 29.95      
Aug 12 15:53 NE 6 10 Clear CLR 87 71     59%   93 29.97 29.96      
Aug 12 13:53 NE 3 10 Clear CLR 87 71     59%   93 30.01 30      
Aug 12 11:53 NE 7 10 Clear CLR 85 73     68%   92 30.04 30.02      
Aug 12 06:53 NNE 3 10 Clear   74 72     94%   75 30.02 30      
Aug 12 05:53 Calm 10 Clear CLR 73 72     96%   75 30 29.98      
Aug 12 02:53 SE 3 10 Clear CLR 76 74     94%   78 29.98 29.96      
Aug 12 01:53 Calm 10 Clear CLR 77 74     90%   79 29.98 29.96      
Aug 11 23:53 Calm 10 Cloudy OVC065 78 73     85%   80 30 29.98      
Aug 11 20:53 SW 3 10 Clear CLR 80 72     76%   84 29.99 29.97      
Aug 11 08:53 NNW 3 8 Light Rain FEW060 SCT080 OVC100 75 72     90%   76 30.04 30.02 0    
Aug 11 08:42 NW 6 6 Light Rain and Fog/Mist FEW055 SCT090 OVC110 75 72     90%   76 30.05   0    
Aug 11 08:26 NW 8 6 Thunderstorms and Rain and Fog/Mist SCT033 BKN050 OVC110 75 72     90%   76 30.05   0    
Aug 11 08:16 NW 16 10 Light Rain SCT024 BKN039 OVC060 76 72     88%   77 30.05   0    
Aug 11 08:09 NW 15 10 Light Rain FEW020 BKN030 OVC050 77 72     84%   78 30.06   0    
Aug 11 07:55 NW 13 10 Cloudy SCT020 BKN028 OVC050 78 75     90%   80 30.04        
Aug 11 07:53 WNW 15 10 Cloudy FEW020 BKN035 OVC055 78 75     90%   80 30.04 30.02      
Aug 11 06:53 NNE 3 10 Clear CLR 77 75     94%   79 30.01 29.99      
Aug 11 05:53 ENE 3 10 Clear   77 75     94%   79 30 29.98      
Aug 11 04:53 Calm 10 Clear CLR 77 75     94%   79 30.01 29.99      
Aug 11 03:53 ENE 5 10 Clear CLR 78 75     90%   80 30 29.98      
Aug 11 02:53 Calm 10 Clear CLR 79 75     88%   83 30 29.98      
Aug 11 01:53 E 5 10 Clear CLR 79 75     88%   83 30 29.98      
Aug 11 00:53 ENE 3 10 Mostly Cloudy BKN046 80 75     85%   85 30.02 30      
Aug 10 23:53 ENE 5 10 Mostly Cloudy BKN049 BKN060 81 75     82%   87 30.02 30      
Aug 10 22:53 E 3 10 Partly Cloudy FEW050 SCT060 82 75     79%   89 30.03 30.01      
Aug 10 21:53 Calm 10 Clear CLR 82 74     77%   88 30.03 30.01      
Aug 10 20:53 ENE 3 10 Clear CLR 84 74     72%   91 30 29.98      
Aug 10 19:53 ESE 3 10 Clear CLR 86 74     67%   94 29.99 29.97      
Aug 10 18:53 E 5 10 Clear CLR 90 73     58%   98 30.01 29.99      
Aug 10 17:53 E 6 10 Partly Cloudy SCT055 89 72     57%   96 30.01 29.99      
Aug 10 16:53 NE 7 10 Cloudy BKN050 OVC080 90 72     56%   97 30.02 30      
Aug 10 15:53 3 10 Mostly Clear FEW047 92 71     51%   99 30.02 30.01      
Aug 10 14:53 Calm 10 Mostly Clear FEW042 89 70     53%   94 30.04 30.02      
Aug 10 13:53 S 3 10 Mostly Cloudy SCT039 BKN090 88 71     57%   94 30.06 30.04      
Aug 10 12:53 Calm 10 Mostly Cloudy BKN036 90 73     58%   98 30.09 30.07      
Aug 10 11:53 Calm 10 Clear CLR 86 73     65%   93 30.11 30.09      
Aug 10 10:53 Calm 10 Mostly Clear FEW080 84 73     70%   90 30.13 30.11      
Aug 10 09:53 ESE 3 10 Mostly Clear FEW120 81 73     77%   86 30.12 30.1      
Aug 10 08:53 E 5 10 Clear CLR 77 72     84%   78 30.12 30.1      
Aug 10 07:53 E 5 10 Clear CLR 75 71     88%   76 30.11 30.09      
Aug 10 06:53 ENE 6 8 Clear CLR 73 71     94%   74 30.09 30.07      
Aug 10 05:53 ENE 3 9 Clear CLR 73 71     94%   74 30.07 30.05      
Aug 10 04:53 E 5 9 Clear CLR 73 72     96%   75 30.06 30.04      
Aug 10 03:53 NE 5 10 Clear CLR 74 71     91%   75 30.06 30.04      
Aug 10 02:53 E 3 10 Clear CLR 74 72     94%   75 30.06 30.04      
Aug 10 01:53 E 3 10 Clear CLR 75 72     90%   76 30.07 30.05      
Aug 10 00:53 Calm 10 Clear CLR 76 72     88%   77 30.07 30.05      
Aug 09 23:53 NE 5 10 Clear CLR 77 72     84%   78 30.07 30.06      
Aug 09 22:53 Calm 10 Clear CLR 78 71     79%   79 30.06 30.04      
Aug 09 21:53 ESE 3 10 Clear CLR 80 71     74%   84 30.06 30.04      
Aug 09 20:53 E 3 10 Clear CLR 81 71     72%   85 30.04 30.02      
Aug 09 19:53 ESE 5 10 Clear CLR 84 69     61%   88 30.02 30      
Aug 09 18:53 E 7 10 Clear CLR 87 69     55%   91 30.02 30      
Aug 09 17:53 E 8 10 Clear CLR 88 68     52%   92 30.03 30.01      
Aug 09 16:53 NE 7 10 Clear CLR 88 68     52%   92 30.04 30.02      
Aug 09 15:53 E 9 10 Clear CLR 88 68     52%   92 30.05 30.03      
Aug 09 14:53 NE 8 10 Clear CLR 88 70     55%   93 30.06 30.04      
Aug 09 13:53   10 Clear CLR 86 69     57%   90 30.08 30.06      
Aug 09 12:53 NE 3 10 Clear CLR 85 70     61%   89 30.1 30.08      
Aug 09 10:53 E 7 10 Clear CLR 81 70     69%   84 30.12 30.1      
Aug 09 09:53 E 6 10 Clear CLR 78 68     71%   79 30.12 30.1      
Aug 09 08:53 E 9 10 Clear CLR 75 68     79%   76 30.11 30.09      
Aug 09 07:53 E 5 9 Clear CLR 72 69     91%   73 30.11 30.09      
Aug 09 06:53 Calm 9 Clear CLR 70 68     93%     30.1 30.08      
Aug 09 05:53 E 3 10 Clear CLR 71 68     90%   72 30.09 30.07      
Aug 09 04:53 E 3 10 Clear CLR 71 69     93%   72 30.09 30.07      
Aug 09 03:53 E 5 9 Clear   72 70     93%   73 30.09 30.07      
Aug 09 02:53 ENE 6 10 Clear CLR 73 70     90%   74 30.08 30.06      
Aug 09 01:53 ENE 3 10 Clear CLR 73 71     94%   74 30.07 30.06      
Aug 09 00:53 E 3 10 Partly Cloudy SCT095 75 71     88%   76 30.08 30.06      
Aug 08 23:53 ENE 5 10 Clear CLR 75 71     88%   76 30.09 30.07      
Aug 08 22:53 NE 3 10 Mostly Cloudy BKN048 77 71     82%   78 30.08 30.06      
Aug 08 21:53 Calm 10 Clear CLR 77 71     82%   78 30.05 30.04      
Aug 08 20:53 E 5 10 Clear CLR 79 71     77%   82 30.03 30.02      
Aug 08 19:53 ENE 5 10 Mostly Clear FEW100 82 69     65%   85 30.02 30.01      
Aug 08 18:53 E 9 10 Partly Cloudy SCT047 SCT110 84 67     57%   87 30.01 30      
Aug 08 17:53 ENE 8 10 Clear CLR 86 67     53%   89 30.02 30      
Aug 08 16:53 E 10 10 Clear CLR 87 68     53%   91 30.03 30.01      
Aug 08 15:53 ENE 7 10 Clear CLR 86 68     55%   89 30.04 30.02      
Aug 08 14:53 E 7 10 Clear CLR 86 68     55%   89 30.06 30.04      
Aug 08 12:53 E 8 10 Partly Cloudy SCT032 SCT044 84 70     63%   88 30.1 30.08      
Aug 08 11:53 ENE 10 10 Partly Cloudy SCT023 81 68     65%   84 30.1 30.09      
Aug 08 10:53 E 9 10 Mostly Cloudy BKN023 79 69     72%   80 30.11 30.09      
Aug 08 10:26 E 6 10 Mostly Cloudy BKN021 BKN026 77 70     79%   78 30.11        
Aug 08 09:53 E 7 10 Mostly Clear FEW024 77 70     79%   78 30.11 30.09      
Aug 08 08:53 ENE 7 10 Clear CLR 75 70     84%   76 30.09 30.08      
Aug 08 07:53 ENE 5 10 Partly Cloudy SCT023 73 70     90%   74 30.08 30.07      
Aug 08 06:53 ENE 3 10 Mostly Clear FEW023 72 70     93%   73 30.07 30.06      
Aug 08 06:26 NE 6 10 Partly Cloudy SCT014 72 70     93%   73 30.07        
Aug 08 06:03 ENE 5 10 Mostly Cloudy BKN014 BKN025 73 71     94%   74 30.06        
Aug 08 05:53 NE 7 10 Mostly Cloudy BKN016 BKN025 73 71     94%   74 30.06 30.04      
Aug 08 05:29 ENE 3 10 Mostly Cloudy BKN014 73 71     94%   74 30.06        
Aug 08 05:04 Calm 10 Partly Cloudy SCT017 73 71     94%   74 30.06        
Aug 08 04:53 Calm 10 Mostly Cloudy BKN018 73 71     94%   74 30.06 30.04      
Aug 08 03:53 ENE 5 10 Cloudy OVC017 74 71     91%   75 30.05 30.03      
Aug 08 03:23 NE 6 10 Mostly Cloudy BKN020 74 71     91%   75 30.04        
Aug 08 02:53 NNE 3 10 Clear CLR 74 71     91%   75 30.04 30.02      
Aug 08 01:53 ENE 3 10 Clear CLR 75 72     90%   76 30.05 30.03      
Aug 08 01:20 ENE 5 10 Mostly Clear FEW023 75 72     90%   76 30.05        
Aug 08 00:53 ENE 3 10 Cloudy OVC022 75 72     90%   76 30.04 30.03      
Aug 08 00:28 ENE 3 10 Mostly Cloudy BKN023 75 72     90%   76 30.05        
Aug 07 23:53 ENE 5 10 Clear CLR 75 72     90%   76 30.04 30.02      
Aug 07 22:53 Calm 10 Clear CLR 77 73     88%   79 30.04 30.02      
Aug 07 21:53 Calm 10 Clear CLR 77 73     88%   79 30.02 30      
Aug 07 20:53 ESE 5 10 Mostly Cloudy SCT042 BKN055 79 73     82%   82 29.99 29.97      
Aug 07 19:53 E 5 10 Clear CLR 81 71     72%   85 29.97 29.96      
Aug 07 18:53 E 8 10 Partly Cloudy SCT070 84 70     63%   88 29.96 29.95      
Aug 07 17:53 ENE 9 10 Mostly Cloudy FEW038 SCT049 BKN055 84 68     59%   87 29.96 29.95      
Aug 07 16:53 ENE 6 10 Mostly Cloudy FEW035 SCT055 BKN070 84 70     63%   88 29.96 29.94      
Aug 07 15:53 NNE 9 10 Mostly Cloudy SCT038 BKN049 86 70     59%   91 29.97 29.95      
Aug 07 14:53 NE 9 10 Cloudy OVC060 84 69     61%   88 29.98 29.96      
Aug 07 13:53 N 9 10 Cloudy OVC048 83 70     65%   87 29.99 29.97      
Aug 07 13:02 ENE 9 10 Mostly Cloudy SCT029 BKN046 83 70     65%   87 29.99        
Aug 07 12:53 ENE 6 10 Cloudy BKN027 BKN036 OVC046 82 70     67%   86 29.99 29.98      
Aug 07 12:10 5 10 Cloudy SCT024 OVC033 81 70     69%   84 30        
Aug 07 11:53 NE 6 10 Cloudy BKN024 OVC031 81 71     72%   85 30 29.98      
Aug 07 10:53 ENE 9 10 Cloudy OVC019 79 70     74%   82 29.98 29.97      
Aug 07 10:41 ENE 9 10 Mostly Cloudy BKN019 80 71     74%   84 29.98        
Aug 07 09:53 ENE 7 10 Partly Cloudy FEW014 SCT120 76 70     82%   77 29.98 29.96      
Aug 07 08:53 ENE 6 10 Partly Cloudy SCT027 74 70     87%   75 29.98 29.96      
Aug 07 07:53 Calm 10 Cloudy OVC020 71 69     93%   72 29.97 29.95      
Aug 07 07:41 Calm 10 Mostly Cloudy BKN020 71 69     93%   72 29.96        
Aug 07 06:53 E 5 10 Clear CLR 70 68     93%     29.93 29.92      
Aug 07 05:53 N 6 10 Clear CLR 71 69     93%   72 29.91 29.89      
Aug 07 04:53 N 7 10 Partly Cloudy SCT070 71 69     93%   72 29.91 29.89      
Aug 07 03:53 NNW 5 10 Mostly Cloudy BKN080 73 70     90%   74 29.94 29.92      
Aug 07 02:53 Calm 10 Clear CLR 73 70     90%   74 29.94 29.93      
Aug 07 01:53 Calm 10 Clear CLR 73 71     94%   74 29.94 29.93      
Aug 07 00:53 Calm 10 Clear CLR 73 71     94%   74 29.94 29.92      
Aug 06 23:53 N 6 10 Clear CLR 75 71     88%   76 29.92 29.91      
Aug 06 22:53 N 3 10 Clear CLR 76 71     85%   77 29.93 29.91      
Aug 06 21:53 NNW 5 10 Mostly Clear FEW035 77 71     82%   78 29.91 29.89      
Aug 06 20:53 NW 6 10 Clear CLR 77 71     82%   78 29.89 29.87      
Aug 06 19:53 NNW 11 10 Clear CLR 79 70     74%   82 29.86 29.85      
Aug 06 18:53 W 10 10 Partly Cloudy SCT033 84 73     70%   90 29.85 29.83      
Aug 06 17:53 WSW 9 10 Mostly Clear FEW035 86 73     65%   93 29.84 29.82      
Aug 06 16:53 SW 8 10 Mostly Cloudy FEW030 SCT041 BKN050 86 72     63%   92 29.84 29.83      
Aug 06 16:46 WSW 11 10 Mostly Cloudy SCT029 BKN041 BKN055 86 72     63%   92 29.84        
Aug 06 16:06 SW 10 10 Cloudy BKN027 BKN035 OVC050 84 73     70%   90 29.85        
Aug 06 15:53 W 8 10 Cloudy SCT027 BKN033 OVC049 84 73     70%   90 29.85 29.83      
Aug 06 15:25 WSW 8 10 Mostly Cloudy FEW022 SCT029 BKN037 83 73     72%   89 29.85        
Aug 06 14:53 WSW 9 10 Mostly Cloudy SCT021 BKN027 BKN044 82 73     74%   87 29.85 29.83      
Aug 06 14:48 WSW 9 10 Mostly Cloudy SCT024 BKN029 BKN036 82 73     74%   88 29.85        
Aug 06 14:41 WSW 13 10 Cloudy SCT024 BKN030 OVC044 83 73     72%   89 29.85        
Aug 06 13:53 WSW 8 10 Cloudy BKN021 OVC025 80 73     79%   84 29.85 29.83      
Aug 06 12:53 SSW 7 10 Mostly Cloudy BKN013 BKN020 78 74     87%   80 29.85 29.83     1
Aug 06 12:39 SSW 6 10 Mostly Cloudy BKN013 77 73     88%   79 29.85        
Aug 06 12:28 3 10 Partly Cloudy SCT011 77 72     84%   78 29.85        
Aug 06 12:12 7 10 Mostly Cloudy BKN011 BKN043 76 73     91%   77 29.85        
Aug 06 12:00 SSE 3 10 Mostly Cloudy SCT011 BKN034 BKN043 75 72     90%   76 29.85        
Aug 06 11:53 Calm 10 Cloudy BKN009 BKN034 OVC043 75 72     90%   76 29.86 29.84      
Aug 06 10:53 WSW 5 10 Cloudy BKN009 BKN042 OVC100 73 72     96%   75 29.85 29.83 0    
Aug 06 10:36 W 5 10 Light Rain SCT008 BKN065 OVC100 72 71     97%   73 29.85   0    
Aug 06 09:53 S 8 10 Light Rain BKN110 71 70     96%   72 29.84 29.83 0 1  
Aug 06 09:19 SSE 6 5 Rain and Fog/Mist BKN100 BKN120 71 70     96%   72 29.84   0    
Aug 06 09:04 SSE 6 4 Rain and Fog/Mist FEW060 BKN090 OVC110 71 71     100%   73 29.85   0    
Aug 06 08:53 SSE 7 5 Heavy Rain and Fog/Mist FEW060 BKN080 OVC110 71 71     100%   73 29.85 29.83 0    
Aug 06 08:51 SSE 8 5 Rain and Fog/Mist FEW060 BKN090 OVC110 72 72     100%   73 29.85   0    
Aug 06 08:18 SSE 8 4 Thunderstorms and Heavy Rain and Fog/Mist BKN055 OVC070 71 71     100%   73 29.85   0    
Aug 06 08:03 S 3 2.5 Heavy Rain and Fog/Mist SCT049 BKN060 OVC080 71 71     100%   73 29.86   0    
Aug 06 07:53 S 6 3 Heavy Rain and Fog/Mist BKN060 OVC085 71 71     100%   73 29.87 29.85 0    
Aug 06 07:32 SSE 6 4 Thunderstorms and Rain and Fog/Mist BKN060 OVC090 71 71     100%   73 29.86   0    
Aug 06 07:13 SSE 5 4 Rain and Fog/Mist FEW033 BKN050 OVC070 71 71     100%   73 29.85   0    
Aug 06 06:53 NE 7 5 Rain and Fog/Mist FEW036 BKN055 OVC070 71 71     100%   73 29.84 29.82 0   2
Aug 06 06:41 ESE 6 6 Light Rain and Fog/Mist BKN036 BKN047 OVC055 71 71     100%   73 29.85   0    
Aug 06 06:21 ENE 10 3 Thunderstorms and Heavy Rain and Fog/Mist FEW006 BKN031 OVC042 71 71     100%   73 29.85   0    
Aug 06 06:14 ENE 9 2.5 Thunderstorms and Heavy Rain and Fog/Mist FEW007 BKN018 OVC040 71 71     100%   73 29.85   0    
Aug 06 06:01 ENE 9 1.5 Thunderstorms and Heavy Rain and Fog/Mist OVC016 70 70     100%     29.85   0    
Aug 06 05:53 ENE 9 0.75 Thunderstorms and Heavy Rain and Fog/Mist VV015 70 70     100%     29.85 29.83 2    
Aug 06 05:49 6 0.75 Thunderstorms and Heavy Rain and Fog/Mist VV014 70 70     100%     29.87   1    
Aug 06 05:36 NNE 14 1 Thunderstorms and Heavy Rain and Fog/Mist BKN017 OVC048 70 70     100%     29.85   1    
Aug 06 05:24 N 11 1.75 Thunderstorms and Heavy Rain and Fog/Mist FEW023 SCT034 OVC048 71 70     96%   72 29.86   0    
Aug 06 05:09 NNW 13 3 Thunderstorms and Rain and Fog/Mist FEW019 BKN035 OVC047 71 70     96%   72 29.87   0    
Aug 06 05:01 N 11 6 Heavy Rain and Fog/Mist FEW019 BKN030 OVC038 72 70     93%   73 29.86   0    
Aug 06 04:53   10 Light Rain FEW017 BKN028 OVC037 74 70     87%   75 29.85 29.83 0    
Aug 06 04:19 ENE 8 10 Light Rain FEW050 BKN100 77 73     88%   79 29.83   0    
Aug 06 03:53 ENE 7 10 Mostly Clear FEW042 77 73     88%   79 29.83 29.8      
Aug 06 02:53 E 7 10 Clear CLR 77 73     88%   79 29.82 29.8      
Aug 06 01:53 E 6 10 Mostly Cloudy BKN047 78 72     82%   79 29.84 29.82      
Aug 06 00:53 E 6 10 Clear CLR 79 72     79%   82 29.86 29.84      
Aug 05 23:53 E 6 10 Clear CLR 79 72     79%   82 29.87 29.85      
Aug 05 22:53 ESE 7 10 Clear CLR 80 71     74%   84 29.86 29.84      
Aug 05 21:53 ESE 5 10 Clear CLR 83 70     65%   87 29.87 29.85      
Aug 05 20:53 SSE 6 10 Clear CLR 85 69     59%   89 29.87 29.85      
Aug 05 19:53 SSE 8 10 Clear CLR 87 70     57%   92 29.86 29.84      
Aug 05 18:53 SSE 11 10 Clear CLR 90 69     50%   95 29.85 29.83      
Aug 05 17:53 SSE 14 10 Mostly Clear FEW003 91 70     50%   97 29.88 29.86      
Aug 05 17:26 SSE 8 10 Mostly Cloudy SCT002 BKN055 BKN070 91 70     50%   97 29.9        
Aug 05 16:53 SE 10 10 Mostly Cloudy SCT055 BKN070 91 70     50%   97 29.91 29.89      
Aug 05 15:53 SE 10 10 Mostly Cloudy BKN055 92 71     51%   99 29.93 29.91      
Aug 05 14:53 SE 8 10 Mostly Cloudy FEW050 BKN060 89 70     53%   94 29.95 29.93      
Aug 05 13:53 6 10 Mostly Cloudy BKN041 89 71     55%   95 29.96 29.94      
Aug 05 12:53 SSE 10 10 Mostly Cloudy BKN041 87 71     59%   93 29.98 29.96      
Aug 05 11:53 7 10 Mostly Clear FEW029 85 72     65%   91 30 29.98      
Aug 05 10:53 SE 9 10 Mostly Clear FEW024 82 71     69%   86 30 29.98      
Aug 05 09:53 SE 8 10 Mostly Cloudy BKN022 80 72     76%   84 30.02 30      
Aug 05 09:42 ESE 8 10 Mostly Cloudy BKN020 80 71     74%   84 30.02        
Aug 05 08:53 E 8 10 Clear CLR 77 70     79%   78 30.03 30.01      
Aug 05 07:53 E 6 10 Mostly Cloudy BKN090 73 68     84%   74 30.03 30.01      
Aug 05 06:53 E 5 10 Mostly Cloudy BKN055 71 67     87%   72 30.02 30.01      
Aug 05 05:53 E 6 10 Mostly Cloudy BKN060 BKN085 71 66     84%   72 30.01 29.99      
Aug 05 04:53 ENE 6 10 Mostly Clear FEW075 71 66     84%   72 30.01 30      
Aug 05 03:53 ENE 6 10 Clear CLR 73 67     81%   74 30.03 30.01      
Aug 05 02:53 ENE 7 10 Clear CLR 73 69     87%   74 30.03 30.01      
Aug 05 01:53 ENE 5 10 Clear CLR 74 69     85%   75 30.03 30.01      
Aug 05 00:53 ENE 5 10 Clear CLR 75 70     84%   76 30.03 30.01      
Aug 04 23:53 ENE 6 10 Partly Cloudy SCT090 76 69     79%   77 30.03 30.01      
Aug 04 22:53 ENE 3 10 Partly Cloudy SCT090 77 69     77%   78 30.03 30.01      
Aug 04 21:53 E 3 10 Clear CLR 78 67     69%   79 30.01 30      
Aug 04 20:53 NNE 5 10 Mostly Clear FEW050 81 66     61%   83 30 29.98      
Aug 04 19:53 E 6 10 Clear CLR 83 67     59%   86 30 29.98      
Aug 04 18:53 ENE 6 10 Mostly Clear FEW050 85 65     51%   87 29.99 29.98      
Aug 04 17:53 3 10 Clear CLR 86 66     51%   88 30.01 29.99      
Aug 04 16:53 ESE 5 10 Cloudy OVC055 86 65     50%   88 30.02 30.01      
Aug 04 15:53 6 10 Cloudy OVC049 88 65     47%   90 30.03 30.01      
Aug 04 14:53 3 10 Cloudy OVC050 85 65     51%   87 30.05 30.03      
Aug 04 13:53 6 10 Mostly Cloudy BKN046 85 65     51%   87 30.06 30.05      
Aug 04 12:53 E 9 10 Mostly Clear FEW042 85 66     53%   87 30.08 30.06      
Aug 04 11:53   10 Clear CLR 82 65     56%   84 30.09 30.07      
Aug 04 10:53 E 7 10 Clear CLR 80 66     62%   82 30.08 30.06      
Aug 04 09:53 ENE 8 10 Clear CLR 80 67     64%   82 30.08 30.06      
Aug 04 08:53 NNE 9 10 Clear CLR 78 67     69%   79 30.08 30.06      
Aug 04 07:53 Calm 10 Clear CLR 75 67     76%   76 30.07 30.05      
Aug 04 06:53 NW 6 10 Partly Cloudy SCT046 73 67     81%   74 30.06 30.03      
Aug 04 05:53 Calm 10 Mostly Clear FEW042 FEW055 74 68     82%   75 30.04 30.02      
Aug 04 04:53 Calm 10 Partly Cloudy SCT048 SCT060 75 69     82%   76 30.03 30.01      
Jun 11 22:53 ENE 6 10 Clear CLR 74 63     69%   74 29.94 29.93      
Jun 11 20:53 Calm 10 Clear CLR 82 61     49%   83 29.91 29.89      
Jun 11 14:53 S 9 10 Partly Cloudy SCT060 88 61     40%   88 29.96 29.94      
Jun 11 08:53 E 6 10 Clear CLR 78 65     64%   79 29.97 29.95      
Jun 10 15:53 SSE 11 10 Cloudy OVC055 85 63     48%   86 29.89 29.87      
Jun 09 01:53 NE 5 10 Clear CLR 64 60     87%     29.92 29.91      
Jun 08 11:53 S 5 10 Clear CLR 79 51     38%   78 30.04 30.02      
Jun 07 08:53 ENE 7 10 Partly Cloudy SCT055 72 55     55%   71 30.02 30      
Jun 06 03:22 Calm 3 Fog/Mist CLR 69 67     93%     29.84